User: anonymous   Login
Location: Peebles
(55.6412°N, 3.1714°W)
Time: 14:04:26
(UTC+01:00)
Language:

IRIDIUM 33 DEB - Orbit

View from above orbital plane
View from above orbital plane
View from above satellite
View from above satellite

Ground track
Ground track

The orbit data is extracted from the following two-line orbital elements,

1 33879U 97051AY  22278.46977546  .00086651  00000-0  87225-2 0  9993
2 33879  86.3558  91.8538 0039672 120.3459 240.1700 14.90169673475334
Epoch (UTC): 05 October 2022 11:16:28
Eccentricity: 0.0039672
inclination: 86.3558°
perigee height: 570 km
apogee height: 625 km
right ascension of ascending node: 91.8538°
argument of perigee: 120.3459°
revolutions per day: 14.90169673
mean anomaly at epoch: 240.1700°
orbit number at epoch: 47533

The dashed part of the orbit path shows where the satellite is in the earth's shadow,  

DLR